| time (UTC) | temp F | wind direction | speed MPH | gust MPH | rain 1hr in | rain 24hr in | rain mn in | humidity % | barometer mb |
| 20260904090550 | 68 | 245 | 2.0 | 2.0 | 0.00 | 0.00 | 0.00 | 52 | 1023.4 |
| 20260904090045 | 68 | 243 | 1.0 | 2.0 | 0.00 | 0.00 | 0.00 | 52 | 1023.4 |
| 20260904085540 | 68 | 246 | 0.0 | 0.0 | 0.00 | 0.00 | 0.00 | 52 | 1023.2 |
| 20260904085040 | 68 | 246 | 0.0 | 0.0 | 0.00 | 0.00 | 0.00 | 52 | 1023.3 |
| 20260904084536 | 68 | 239 | 0.0 | 0.0 | 0.00 | 0.00 | 0.00 | 52 | 1023.2 |
| 20260904084032 | 68 | 236 | 0.0 | 2.0 | 0.00 | 0.00 | 0.00 | 52 | 1023.3 |
| 20260904083527 | 68 | 231 | 0.0 | 0.0 | 0.00 | 0.00 | 0.00 | 52 | 1023.4 |
| 20260904083023 | 68 | 226 | 0.0 | 2.0 | 0.00 | 0.00 | 0.00 | 53 | 1023.2 |
| 20260904082518 | 68 | 240 | 0.0 | 0.0 | 0.00 | 0.00 | 0.00 | 54 | 1023.5 |
| 20260904082013 | 68 | 234 | 2.0 | 2.0 | 0.00 | 0.00 | 0.00 | 53 | 1023.3 |
| 20260904081509 | 68 | 244 | 0.0 | 0.0 | 0.00 | 0.00 | 0.00 | 53 | 1023.6 |
| 20260904081004 | 68 | 244 | 0.0 | 0.0 | 0.00 | 0.00 | 0.00 | 52 | 1023.2 |
| 20260904080459 | 68 | 241 | 0.0 | 0.0 | 0.00 | 0.00 | 0.00 | 52 | 1023.4 |
| 20260904075955 | 68 | 243 | 0.0 | 2.0 | 0.00 | 0.00 | 0.00 | 52 | 1023.5 |
| 20260904075451 | 68 | 227 | 0.0 | 2.0 | 0.00 | 0.00 | 0.00 | 52 | 1023.9 |
| 20260904074950 | 68 | 244 | 1.0 | 2.0 | 0.00 | 0.00 | 0.00 | 52 | 1023.8 |
| 20260904074445 | 68 | 244 | 2.0 | 3.0 | 0.00 | 0.00 | 0.00 | 52 | 1023.8 |
| 20260904073940 | 68 | 256 | 2.0 | 2.0 | 0.00 | 0.00 | 0.00 | 52 | 1023.5 |
| 20260904073436 | 68 | 244 | 0.0 | 2.0 | 0.00 | 0.00 | 0.00 | 52 | 1023.4 |
| 20260904072931 | 68 | 245 | 2.0 | 2.0 | 0.00 | 0.00 | 0.00 | 52 | 1023.5 |
| 20260904072426 | 68 | 243 | 1.0 | 2.0 | 0.00 | 0.00 | 0.00 | 52 | 1023.5 |
| 20260904071921 | 68 | 241 | 1.0 | 2.0 | 0.00 | 0.00 | 0.00 | 52 | 1023.6 |
| 20260904071417 | 68 | 244 | 2.0 | 2.0 | 0.00 | 0.00 | 0.00 | 52 | 1023.4 |
| 20260904070912 | 68 | 244 | 1.0 | 2.0 | 0.00 | 0.00 | 0.00 | 52 | 1023.6 |
| 20260904070411 | 69 | 240 | 2.0 | 3.0 | 0.00 | 0.00 | 0.00 | 52 | 1023.6 |
| 20260904065910 | 69 | 234 | 2.0 | 3.0 | 0.00 | 0.00 | 0.00 | 51 | 1023.9 |
| 20260904065407 | 68 | 239 | 3.0 | 3.0 | 0.00 | 0.00 | 0.00 | 52 | 1023.9 |
| 20260904064906 | 68 | 282 | 3.0 | 3.0 | 0.00 | 0.00 | 0.00 | 52 | 1023.8 |
| 20260904064403 | 68 | 232 | 2.0 | 3.0 | 0.00 | 0.00 | 0.00 | 52 | 1023.8 |
| 20260904063858 | 68 | 241 | 2.0 | 2.0 | 0.00 | 0.00 | 0.00 | 52 | 1023.6 |
| 20260904063355 | 68 | 252 | 2.0 | 2.0 | 0.00 | 0.00 | 0.00 | 52 | 1023.8 |
| 20260904062849 | 68 | 274 | 1.0 | 2.0 | 0.00 | 0.00 | 0.00 | 52 | 1023.8 |
| 20260904062345 | 68 | 238 | 1.0 | 2.0 | 0.00 | 0.00 | 0.00 | 52 | 1023.8 |
| 20260904061841 | 68 | 242 | 1.0 | 2.0 | 0.00 | 0.00 | 0.00 | 52 | 1023.8 |
| 20260904061337 | 68 | 254 | 3.0 | 3.0 | 0.00 | 0.00 | 0.00 | 52 | 1023.8 |
| 20260904060833 | 68 | 245 | 2.0 | 2.0 | 0.00 | 0.00 | 0.00 | 52 | 1023.9 |
| 20260904060329 | 68 | 248 | 1.0 | 3.0 | 0.00 | 0.00 | 0.00 | 52 | 1024.0 |
| 20260904055824 | 68 | 252 | 2.0 | 2.0 | 0.00 | 0.00 | 0.00 | 53 | 1023.8 |
| 20260904055319 | 68 | 241 | 2.0 | 3.0 | 0.00 | 0.00 | 0.00 | 53 | 1023.6 |
| 20260904054815 | 68 | 240 | 2.0 | 3.0 | 0.00 | 0.00 | 0.00 | 53 | 1023.9 |
| 20260904054311 | 68 | 255 | 1.0 | 2.0 | 0.00 | 0.00 | 0.00 | 53 | 1023.6 |
| 20260904053806 | 68 | 230 | 1.0 | 2.0 | 0.00 | 0.00 | 0.00 | 52 | 1023.8 |
| 20260904053305 | 68 | 276 | 2.0 | 2.0 | 0.00 | 0.00 | 0.00 | 52 | 1023.8 |
| 20260904052801 | 68 | 235 | 2.0 | 2.0 | 0.00 | 0.00 | 0.00 | 52 | 1023.9 |
| 20260904052258 | 68 | 240 | 1.0 | 2.0 | 0.00 | 0.00 | 0.00 | 53 | 1023.9 |
| 20260904051753 | 68 | 250 | 2.0 | 3.0 | 0.00 | 0.00 | 0.00 | 53 | 1023.9 |
| 20260904051248 | 68 | 253 | 2.0 | 3.0 | 0.00 | 0.00 | 0.00 | 53 | 1024.0 |
| 20260904050744 | 68 | 263 | 3.0 | 3.0 | 0.00 | 0.00 | 0.00 | 53 | 1023.9 |
| 20260904050240 | 68 | 254 | 2.0 | 2.0 | 0.00 | 0.00 | 0.00 | 53 | 1023.9 |
| 20260904045735 | 68 | 244 | 2.0 | 3.0 | 0.00 | 0.00 | 0.00 | 53 | 1024.1 |
| 20260904045229 | 67 | 258 | 2.0 | 2.0 | 0.00 | 0.00 | 0.00 | 54 | 1024.1 |
| 20260904044724 | 67 | 261 | 2.0 | 3.0 | 0.00 | 0.00 | 0.00 | 54 | 1024.3 |
| 20260904044221 | 68 | 247 | 1.0 | 2.0 | 0.00 | 0.00 | 0.00 | 54 | 1024.0 |
| 20260904043717 | 68 | 244 | 2.0 | 2.0 | 0.00 | 0.00 | 0.00 | 53 | 1024.0 |
| 20260904043213 | 68 | 242 | 1.0 | 2.0 | 0.00 | 0.00 | 0.00 | 53 | 1023.9 |
| 20260904042708 | 69 | 257 | 0.0 | 2.0 | 0.00 | 0.00 | 0.00 | 52 | 1023.8 |
| 20260904042204 | 69 | 249 | 1.0 | 2.0 | 0.00 | 0.00 | 0.00 | 52 | 1024.1 |
| 20260904041658 | 68 | 253 | 3.0 | 3.0 | 0.00 | 0.00 | 0.00 | 52 | 1024.1 |
| 20260904041155 | 68 | 272 | 3.0 | 3.0 | 0.00 | 0.00 | 0.00 | 53 | 1024.0 |
| 20260904040650 | 68 | 255 | 2.0 | 3.0 | 0.00 | 0.00 | 0.00 | 53 | 1024.3 |
| 20260904040146 | 68 | 250 | 2.0 | 3.0 | 0.00 | 0.00 | 0.00 | 53 | 1024.1 |
| 20260904035642 | 68 | 223 | 5.0 | 5.0 | 0.00 | 0.00 | 0.00 | 54 | 1024.1 |
| 20260904035137 | 68 | 247 | 2.0 | 2.0 | 0.00 | 0.00 | 0.00 | 54 | 1023.9 |
| 20260904034636 | 68 | 248 | 2.0 | 2.0 | 0.00 | 0.00 | 0.00 | 54 | 1024.1 |
| 20260904034132 | 68 | 242 | 2.0 | 2.0 | 0.00 | 0.00 | 0.00 | 53 | 1024.1 |
| 20260904033627 | 68 | 239 | 3.0 | 3.0 | 0.00 | 0.00 | 0.00 | 53 | 1023.9 |
| 20260904033125 | 68 | 258 | 2.0 | 2.0 | 0.00 | 0.00 | 0.00 | 53 | 1024.3 |
| 20260904032620 | 68 | 249 | 1.0 | 2.0 | 0.00 | 0.00 | 0.00 | 53 | 1024.3 |
| 20260904032119 | 69 | 282 | 2.0 | 3.0 | 0.00 | 0.00 | 0.00 | 52 | 1024.0 |
| 20260904031618 | 69 | 231 | 2.0 | 2.0 | 0.00 | 0.00 | 0.00 | 52 | 1023.9 |
| 20260904031114 | 69 | 254 | 4.0 | 5.0 | 0.00 | 0.00 | 0.00 | 52 | 1023.9 |
| 20260904030610 | 69 | 251 | 3.0 | 3.0 | 0.00 | 0.00 | 0.00 | 52 | 1024.0 |
| 20260904030105 | 69 | 238 | 3.0 | 3.0 | 0.00 | 0.00 | 0.00 | 51 | 1023.8 |
| 20260904025601 | 69 | 266 | 3.0 | 3.0 | 0.00 | 0.00 | 0.00 | 51 | 1023.8 |
| 20260904025056 | 70 | 283 | 3.0 | 3.0 | 0.00 | 0.00 | 0.00 | 51 | 1023.6 |
| 20260904024551 | 70 | 238 | 4.0 | 5.0 | 0.00 | 0.00 | 0.00 | 50 | 1023.5 |
| 20260904024047 | 70 | 250 | 5.0 | 5.0 | 0.00 | 0.00 | 0.00 | 50 | 1023.5 |
| 20260904023543 | 70 | 247 | 3.0 | 5.0 | 0.00 | 0.00 | 0.00 | 50 | 1023.3 |
| 20260904023038 | 69 | 249 | 4.0 | 5.0 | 0.00 | 0.00 | 0.00 | 50 | 1023.5 |
| 20260904022533 | 70 | 276 | 2.0 | 2.0 | 0.00 | 0.00 | 0.00 | 51 | 1023.3 |
| 20260904022030 | 70 | 254 | 1.0 | 2.0 | 0.00 | 0.00 | 0.00 | 50 | 1023.0 |
| 20260904021525 | 70 | 243 | 1.0 | 2.0 | 0.00 | 0.00 | 0.00 | 50 | 1023.2 |
| 20260904021021 | 71 | 269 | 1.0 | 2.0 | 0.00 | 0.00 | 0.00 | 49 | 1023.0 |
| 20260904020521 | 71 | 244 | 1.0 | 2.0 | 0.00 | 0.00 | 0.00 | 48 | 1023.0 |
| 20260904020015 | 72 | 260 | 4.0 | 7.0 | 0.00 | 0.00 | 0.00 | 46 | 1022.9 |
| 20260904015510 | 72 | 239 | 5.0 | 7.0 | 0.00 | 0.00 | 0.00 | 45 | 1023.0 |
| 20260904015009 | 72 | 287 | 5.0 | 5.0 | 0.00 | 0.00 | 0.00 | 45 | 1023.0 |
| 20260904014503 | 73 | 285 | 5.0 | 7.0 | 0.00 | 0.00 | 0.00 | 43 | 1022.8 |
| 20260904013959 | 73 | 256 | 4.0 | 5.0 | 0.00 | 0.00 | 0.00 | 41 | 1023.0 |
| 20260904013455 | 73 | 250 | 2.0 | 3.0 | 0.00 | 0.00 | 0.00 | 41 | 1023.0 |
| 20260904012951 | 74 | 242 | 5.0 | 5.0 | 0.00 | 0.00 | 0.00 | 40 | 1023.2 |
| 20260904012451 | 74 | 246 | 4.0 | 7.0 | 0.00 | 0.00 | 0.00 | 40 | 1022.8 |
| 20260904011945 | 74 | 248 | 4.0 | 5.0 | 0.00 | 0.00 | 0.00 | 39 | 1022.9 |
| 20260904011440 | 75 | 276 | 5.0 | 7.0 | 0.00 | 0.00 | 0.00 | 39 | 1022.9 |
| 20260904010935 | 75 | 236 | 6.0 | 7.0 | 0.00 | 0.00 | 0.00 | 39 | 1022.9 |
| 20260904010431 | 75 | 238 | 5.0 | 9.0 | 0.00 | 0.00 | 0.00 | 38 | 1022.8 |
| 20260904005926 | 75 | 248 | 6.0 | 7.0 | 0.00 | 0.00 | 0.00 | 38 | 1023.0 |
| 20260904005421 | 75 | 257 | 7.0 | 9.0 | 0.00 | 0.00 | 0.00 | 37 | 1022.8 |
| 20260904004916 | 76 | 250 | 4.0 | 7.0 | 0.00 | 0.00 | 0.00 | 37 | 1022.8 |
| 20260904004412 | 76 | 253 | 6.0 | 7.0 | 0.00 | 0.00 | 0.00 | 37 | 1022.8 |
| 20260904003907 | 76 | 254 | 7.0 | 10.0 | 0.00 | 0.00 | 0.00 | 37 | 1023.0 |
| 20260904003402 | 76 | 219 | 7.0 | 9.0 | 0.00 | 0.00 | 0.00 | 37 | 1022.9 |
| 20260904002857 | 76 | 235 | 6.0 | 7.0 | 0.00 | 0.00 | 0.00 | 37 | 1023.0 |
| 20260904002354 | 76 | 284 | 5.0 | 9.0 | 0.00 | 0.00 | 0.00 | 37 | 1022.8 |
| 20260904001853 | 76 | 231 | 10.0 | 12.0 | 0.00 | 0.00 | 0.00 | 37 | 1023.0 |
| 20260904001349 | 76 | 223 | 7.0 | 12.0 | 0.00 | 0.00 | 0.00 | 37 | 1022.9 |
| 20260904000843 | 77 | 210 | 9.0 | 10.0 | 0.00 | 0.00 | 0.00 | 36 | 1022.7 |
| 20260904000343 | 77 | 267 | 5.0 | 7.0 | 0.00 | 0.00 | 0.00 | 36 | 1022.9 |
| 20260903235843 | 77 | 241 | 7.0 | 9.0 | 0.00 | 0.00 | 0.00 | 36 | 1022.9 |
| 20260903235339 | 77 | 258 | 5.0 | 7.0 | 0.00 | 0.00 | 0.00 | 36 | 1023.0 |
| 20260903234838 | 77 | 241 | 6.0 | 9.0 | 0.00 | 0.00 | 0.00 | 35 | 1022.8 |
| 20260903234335 | 78 | 276 | 5.0 | 7.0 | 0.00 | 0.00 | 0.00 | 35 | 1023.0 |
| 20260903233831 | 79 | 240 | 6.0 | 7.0 | 0.00 | 0.00 | 0.00 | 34 | 1022.7 |
| 20260903233326 | 80 | 248 | 11.0 | 14.0 | 0.00 | 0.00 | 0.00 | 33 | 1022.7 |
| 20260903232825 | 80 | 285 | 7.0 | 14.0 | 0.00 | 0.00 | 0.00 | 32 | 1022.8 |
| 20260903232321 | 78 | 212 | 7.0 | 9.0 | 0.00 | 0.00 | 0.00 | 34 | 1022.9 |
| 20260903231820 | 78 | 261 | 4.0 | 5.0 | 0.00 | 0.00 | 0.00 | 35 | 1022.7 |
| 20260903231316 | 78 | 273 | 7.0 | 9.0 | 0.00 | 0.00 | 0.00 | 34 | 1022.7 |
| 20260903230811 | 79 | 236 | 5.0 | 5.0 | 0.00 | 0.00 | 0.00 | 34 | 1023.0 |
| 20260903230306 | 80 | 287 | 5.0 | 7.0 | 0.00 | 0.00 | 0.00 | 33 | 1022.8 |
| 20260903225803 | 80 | 281 | 5.0 | 7.0 | 0.00 | 0.00 | 0.00 | 33 | 1022.9 |
| 20260903225258 | 80 | 301 | 4.0 | 5.0 | 0.00 | 0.00 | 0.00 | 33 | 1022.9 |
| 20260903224755 | 80 | 236 | 5.0 | 7.0 | 0.00 | 0.00 | 0.00 | 33 | 1022.9 |
| 20260903224250 | 79 | 230 | 6.0 | 9.0 | 0.00 | 0.00 | 0.00 | 34 | 1022.9 |
| 20260903223746 | 78 | 258 | 4.0 | 7.0 | 0.00 | 0.00 | 0.00 | 34 | 1023.0 |
| 20260903223244 | 79 | 284 | 7.0 | 9.0 | 0.00 | 0.00 | 0.00 | 34 | 1023.0 |
| 20260903222739 | 82 | 295 | 6.0 | 9.0 | 0.00 | 0.00 | 0.00 | 32 | 1023.2 |
| 20260903222238 | 82 | 273 | 6.0 | 7.0 | 0.00 | 0.00 | 0.00 | 31 | 1022.9 |
| 20260903221733 | 80 | 247 | 5.0 | 7.0 | 0.00 | 0.00 | 0.00 | 32 | 1023.0 |
| 20260903221232 | 80 | 240 | 2.0 | 2.0 | 0.00 | 0.00 | 0.00 | 33 | 1023.2 |
| 20260903220730 | 79 | 231 | 5.0 | 7.0 | 0.00 | 0.00 | 0.00 | 34 | 1023.0 |
| 20260903220225 | 78 | 265 | 5.0 | 9.0 | 0.00 | 0.00 | 0.00 | 34 | 1023.4 |
| 20260903215724 | 78 | 244 | 3.0 | 3.0 | 0.00 | 0.00 | 0.00 | 34 | 1023.5 |
| 20260903215220 | 78 | 276 | 6.0 | 9.0 | 0.00 | 0.00 | 0.00 | 35 | 1023.3 |
| 20260903214718 | 78 | 245 | 4.0 | 5.0 | 0.00 | 0.00 | 0.00 | 35 | 1023.5 |
| 20260903214214 | 78 | 256 | 2.0 | 3.0 | 0.00 | 0.00 | 0.00 | 35 | 1023.5 |
| 20260903213708 | 79 | 251 | 3.0 | 3.0 | 0.00 | 0.00 | 0.00 | 35 | 1023.8 |
| 20260903213204 | 79 | 242 | 3.0 | 5.0 | 0.00 | 0.00 | 0.00 | 34 | 1023.6 |
| 20260903212700 | 79 | 246 | 6.0 | 9.0 | 0.00 | 0.00 | 0.00 | 34 | 1023.6 |
| 20260903212156 | 78 | 240 | 4.0 | 5.0 | 0.00 | 0.00 | 0.00 | 35 | 1023.8 |
| 20260903211649 | 78 | 230 | 10.0 | 12.0 | 0.00 | 0.00 | 0.00 | 35 | 1023.8 |
| 20260903211147 | 77 | 245 | 2.0 | 3.0 | 0.00 | 0.00 | 0.00 | 35 | 1024.1 |
| 20260903210642 | 77 | 234 | 6.0 | 9.0 | 0.00 | 0.00 | 0.00 | 36 | 1024.0 |
| 20260903210138 | 77 | 282 | 9.0 | 12.0 | 0.00 | 0.00 | 0.00 | 36 | 1023.9 |
| 20260903205637 | 78 | 258 | 5.0 | 5.0 | 0.00 | 0.00 | 0.00 | 35 | 1024.1 |
| 20260903205136 | 77 | 238 | 7.0 | 12.0 | 0.00 | 0.00 | 0.00 | 35 | 1024.1 |
| 20260903204632 | 78 | 228 | 5.0 | 7.0 | 0.00 | 0.00 | 0.00 | 35 | 1024.0 |
| 20260903204128 | 78 | 260 | 9.0 | 12.0 | 0.00 | 0.00 | 0.00 | 35 | 1024.1 |
| 20260903203623 | 79 | 274 | 7.0 | 10.0 | 0.00 | 0.00 | 0.00 | 35 | 1024.4 |
| 20260903203118 | 78 | 250 | 6.0 | 9.0 | 0.00 | 0.00 | 0.00 | 35 | 1024.3 |
| 20260903202613 | 78 | 235 | 6.0 | 9.0 | 0.00 | 0.00 | 0.00 | 35 | 1024.4 |
| 20260903202108 | 77 | 259 | 7.0 | 10.0 | 0.00 | 0.00 | 0.00 | 35 | 1024.0 |
| 20260903201603 | 77 | 256 | 3.0 | 5.0 | 0.00 | 0.00 | 0.00 | 36 | 1024.1 |
| 20260903201102 | 77 | 287 | 3.0 | 5.0 | 0.00 | 0.00 | 0.00 | 35 | 1024.3 |
| 20260903200552 | 77 | 291 | 7.0 | 9.0 | 0.00 | 0.00 | 0.00 | 35 | 1024.4 |
| 20260903200046 | 78 | 222 | 8.0 | 14.0 | 0.00 | 0.00 | 0.00 | 35 | 1024.1 |
| 20260903195543 | 78 | 257 | 3.0 | 3.0 | 0.00 | 0.00 | 0.00 | 35 | 1024.5 |
| 20260903195038 | 78 | 288 | 6.0 | 9.0 | 0.00 | 0.00 | 0.00 | 34 | 1024.5 |
| 20260903194533 | 78 | 242 | 7.0 | 9.0 | 0.00 | 0.00 | 0.00 | 34 | 1024.6 |
| 20260903194028 | 78 | 231 | 3.0 | 3.0 | 0.00 | 0.00 | 0.00 | 35 | 1024.5 |
| 20260903193525 | 79 | 286 | 6.0 | 7.0 | 0.00 | 0.00 | 0.00 | 34 | 1024.5 |
| 20260903193019 | 78 | 302 | 5.0 | 7.0 | 0.00 | 0.00 | 0.00 | 34 | 1024.6 |
| 20260903192517 | 78 | 246 | 6.0 | 7.0 | 0.00 | 0.00 | 0.00 | 35 | 1024.6 |
| 20260903192016 | 79 | 245 | 6.0 | 7.0 | 0.00 | 0.00 | 0.00 | 34 | 1024.6 |
| 20260903191513 | 80 | 194 | 2.0 | 3.0 | 0.00 | 0.00 | 0.00 | 33 | 1024.8 |
| 20260903191007 | 81 | 236 | 7.0 | 12.0 | 0.00 | 0.00 | 0.00 | 32 | 1024.9 |
| 20260903190507 | 82 | 2 | 4.0 | 5.0 | 0.00 | 0.00 | 0.00 | 32 | 1024.8 |
| 20260903190001 | 81 | 241 | 4.0 | 5.0 | 0.00 | 0.00 | 0.00 | 32 | 1025.1 |
| 20260903185457 | 81 | 241 | 7.0 | 7.0 | 0.00 | 0.00 | 0.00 | 32 | 1025.4 |
| 20260903184957 | 80 | 324 | 3.0 | 3.0 | 0.00 | 0.00 | 0.00 | 33 | 1025.4 |
| 20260903184454 | 80 | 277 | 5.0 | 7.0 | 0.00 | 0.00 | 0.00 | 32 | 1025.5 |
| 20260903183954 | 80 | 213 | 5.0 | 5.0 | 0.00 | 0.00 | 0.00 | 32 | 1025.4 |
| 20260903183448 | 80 | 240 | 5.0 | 5.0 | 0.00 | 0.00 | 0.00 | 31 | 1025.8 |
| 20260903182947 | 80 | 216 | 8.0 | 10.0 | 0.00 | 0.00 | 0.00 | 32 | 1025.8 |
| 20260903182447 | 79 | 236 | 4.0 | 5.0 | 0.00 | 0.00 | 0.00 | 32 | 1025.8 |
| 20260903181942 | 80 | 286 | 7.0 | 9.0 | 0.00 | 0.00 | 0.00 | 32 | 1025.8 |
| 20260903181441 | 79 | 215 | 5.0 | 7.0 | 0.00 | 0.00 | 0.00 | 32 | 1026.0 |
| 20260903180936 | 78 | 242 | 4.0 | 5.0 | 0.00 | 0.00 | 0.00 | 32 | 1025.9 |
| 20260903180431 | 78 | 234 | 6.0 | 9.0 | 0.00 | 0.00 | 0.00 | 33 | 1026.3 |
| 20260903175930 | 77 | 222 | 6.0 | 9.0 | 0.00 | 0.00 | 0.00 | 33 | 1026.3 |
| 20260903175425 | 78 | 242 | 1.0 | 2.0 | 0.00 | 0.00 | 0.00 | 33 | 1026.1 |
| 20260903174919 | 77 | 11 | 3.0 | 5.0 | 0.00 | 0.00 | 0.00 | 33 | 1026.3 |
| 20260903174415 | 80 | 54 | 3.0 | 3.0 | 0.00 | 0.00 | 0.00 | 32 | 1026.3 |
| 20260903173914 | 78 | 236 | 0.0 | 2.0 | 0.00 | 0.00 | 0.00 | 31 | 1026.1 |
| 20260903173415 | 79 | 240 | 3.0 | 3.0 | 0.00 | 0.00 | 0.00 | 32 | 1026.1 |
| 20260903172910 | 78 | 212 | 1.0 | 2.0 | 0.00 | 0.00 | 0.00 | 32 | 1026.3 |
| 20260903172411 | 79 | 58 | 2.0 | 5.0 | 0.00 | 0.00 | 0.00 | 32 | 1026.0 |
| 20260903171906 | 78 | 314 | 6.0 | 7.0 | 0.00 | 0.00 | 0.00 | 34 | 1026.1 |
| 20260903171401 | 77 | 127 | 5.0 | 5.0 | 0.00 | 0.00 | 0.00 | 33 | 1026.3 |
| 20260903170901 | 77 | 58 | 6.0 | 9.0 | 0.00 | 0.00 | 0.00 | 34 | 1026.1 |
| 20260903170355 | 78 | 45 | 7.0 | 12.0 | 0.00 | 0.00 | 0.00 | 34 | 1025.8 |
| 20260903165854 | 76 | 69 | 4.0 | 5.0 | 0.00 | 0.00 | 0.00 | 35 | 1025.9 |
| 20260903165349 | 77 | 84 | 3.0 | 5.0 | 0.00 | 0.00 | 0.00 | 34 | 1026.0 |
| 20260903164843 | 76 | 314 | 1.0 | 3.0 | 0.00 | 0.00 | 0.00 | 35 | 1026.1 |
| 20260903164338 | 76 | 140 | 5.0 | 10.0 | 0.00 | 0.00 | 0.00 | 36 | 1026.3 |
| 20260903163838 | 75 | 211 | 2.0 | 2.0 | 0.00 | 0.00 | 0.00 | 37 | 1026.3 |
| 20260903163335 | 77 | 95 | 6.0 | 12.0 | 0.00 | 0.00 | 0.00 | 37 | 1026.3 |
| 20260903162830 | 78 | 267 | 2.0 | 3.0 | 0.00 | 0.00 | 0.00 | 36 | 1025.9 |
| 20260903162327 | 77 | 175 | 3.0 | 3.0 | 0.00 | 0.00 | 0.00 | 36 | 1026.0 |
| 20260903161822 | 76 | 72 | 4.0 | 7.0 | 0.00 | 0.00 | 0.00 | 38 | 1025.9 |
| 20260903161318 | 76 | 68 | 3.0 | 7.0 | 0.00 | 0.00 | 0.00 | 39 | 1026.0 |
| 20260903160813 | 76 | 342 | 2.0 | 3.0 | 0.00 | 0.00 | 0.00 | 39 | 1026.1 |
| 20260903160312 | 77 | 208 | 4.0 | 5.0 | 0.00 | 0.00 | 0.00 | 38 | 1025.8 |
| 20260903155810 | 76 | 354 | 6.0 | 9.0 | 0.00 | 0.00 | 0.00 | 40 | 1025.4 |
| 20260903155306 | 77 | 279 | 5.0 | 9.0 | 0.00 | 0.00 | 0.00 | 39 | 1025.6 |
| 20260903154801 | 76 | 155 | 7.0 | 10.0 | 0.00 | 0.00 | 0.00 | 41 | 1025.6 |
| 20260903154257 | 75 | 91 | 2.0 | 2.0 | 0.00 | 0.00 | 0.00 | 41 | 1025.8 |
| 20260903153753 | 74 | 197 | 3.0 | 3.0 | 0.00 | 0.00 | 0.00 | 42 | 1025.6 |
| 20260903153249 | 73 | 94 | 3.0 | 7.0 | 0.00 | 0.00 | 0.00 | 44 | 1025.6 |
| 20260903152744 | 72 | 251 | 4.0 | 7.0 | 0.00 | 0.00 | 0.00 | 45 | 1025.8 |
| 20260903152241 | 73 | 241 | 2.0 | 5.0 | 0.00 | 0.00 | 0.00 | 44 | 1025.9 |
| 20260903151740 | 73 | 250 | 2.0 | 3.0 | 0.00 | 0.00 | 0.00 | 44 | 1025.8 |
| 20260903151236 | 74 | 227 | 1.0 | 2.0 | 0.00 | 0.00 | 0.00 | 43 | 1026.0 |
| 20260903150730 | 74 | 232 | 1.0 | 2.0 | 0.00 | 0.00 | 0.00 | 44 | 1025.8 |
| 20260903150225 | 74 | 193 | 0.0 | 2.0 | 0.00 | 0.00 | 0.00 | 44 | 1025.9 |
| 20260903145726 | 74 | 249 | 2.0 | 3.0 | 0.00 | 0.00 | 0.00 | 44 | 1026.0 |
| 20260903145221 | 72 | 350 | 2.0 | 3.0 | 0.00 | 0.00 | 0.00 | 45 | 1026.1 |
| 20260903144719 | 70 | 282 | 3.0 | 3.0 | 0.00 | 0.00 | 0.00 | 48 | 1026.1 |
| 20260903144215 | 70 | 247 | 4.0 | 5.0 | 0.00 | 0.00 | 0.00 | 48 | 1025.9 |
| 20260903143711 | 72 | 184 | 0.0 | 2.0 | 0.00 | 0.00 | 0.00 | 47 | 1025.9 |
| 20260903143207 | 72 | 163 | 2.0 | 2.0 | 0.00 | 0.00 | 0.00 | 46 | 1025.9 |
| 20260903142703 | 71 | 329 | 0.0 | 2.0 | 0.00 | 0.00 | 0.00 | 46 | 1025.6 |
| 20260903142159 | 70 | 200 | 2.0 | 3.0 | 0.00 | 0.00 | 0.00 | 48 | 1025.8 |
| 20260903141654 | 69 | 272 | 4.0 | 7.0 | 0.00 | 0.00 | 0.00 | 49 | 1025.8 |
| 20260903141148 | 68 | 256 | 4.0 | 5.0 | 0.00 | 0.00 | 0.00 | 50 | 1025.6 |
| 20260903140644 | 68 | 255 | 1.0 | 3.0 | 0.00 | 0.00 | 0.00 | 51 | 1025.6 |
| 20260903140140 | 66 | 236 | 3.0 | 5.0 | 0.00 | 0.00 | 0.00 | 52 | 1025.4 |
| 20260903135635 | 64 | 226 | 0.0 | 2.0 | 0.00 | 0.00 | 0.00 | 56 | 1025.5 |
| 20260903135130 | 64 | 241 | 0.0 | 2.0 | 0.00 | 0.00 | 0.00 | 57 | 1025.8 |
| 20260903134629 | 63 | 234 | 0.0 | 2.0 | 0.00 | 0.00 | 0.00 | 57 | 1025.6 |
| 20260903134125 | 63 | 240 | 2.0 | 3.0 | 0.00 | 0.00 | 0.00 | 57 | 1025.9 |
| 20260903133623 | 63 | 240 | 0.0 | 0.0 | 0.00 | 0.00 | 0.00 | 57 | 1025.5 |
| 20260903133119 | 64 | 229 | 1.0 | 2.0 | 0.00 | 0.00 | 0.00 | 57 | 1025.5 |
| 20260903132614 | 64 | 338 | 2.0 | 3.0 | 0.00 | 0.00 | 0.00 | 56 | 1025.5 |
| 20260903132113 | 64 | 246 | 0.0 | 0.0 | 0.00 | 0.00 | 0.00 | 56 | 1025.4 |
| 20260903131608 | 64 | 290 | 2.0 | 3.0 | 0.00 | 0.00 | 0.00 | 56 | 1025.3 |
| 20260903131107 | 64 | 214 | 1.0 | 2.0 | 0.00 | 0.00 | 0.00 | 57 | 1024.9 |
| 20260903130602 | 63 | 246 | 2.0 | 2.0 | 0.00 | 0.00 | 0.00 | 57 | 1024.8 |
| 20260903130057 | 63 | 230 | 3.0 | 3.0 | 0.00 | 0.00 | 0.00 | 58 | 1024.8 |
| 20260903125555 | 63 | 263 | 2.0 | 2.0 | 0.00 | 0.00 | 0.00 | 58 | 1024.9 |
| 20260903125051 | 63 | 236 | 2.0 | 3.0 | 0.00 | 0.00 | 0.00 | 58 | 1024.8 |
| 20260903124550 | 63 | 224 | 2.0 | 2.0 | 0.00 | 0.00 | 0.00 | 58 | 1024.6 |
| 20260903124045 | 62 | 238 | 3.0 | 3.0 | 0.00 | 0.00 | 0.00 | 58 | 1024.6 |
| 20260903123544 | 62 | 261 | 4.0 | 5.0 | 0.00 | 0.00 | 0.00 | 58 | 1024.5 |
| 20260903123043 | 62 | 226 | 0.0 | 2.0 | 0.00 | 0.00 | 0.00 | 58 | 1024.6 |
| 20260903122542 | 62 | 226 | 1.0 | 3.0 | 0.00 | 0.00 | 0.00 | 59 | 1024.8 |
| 20260903122037 | 63 | 254 | 0.0 | 2.0 | 0.00 | 0.00 | 0.00 | 58 | 1024.5 |
| 20260903121532 | 63 | 270 | 0.0 | 2.0 | 0.00 | 0.00 | 0.00 | 58 | 1024.3 |
| 20260903121028 | 63 | 239 | 1.0 | 2.0 | 0.00 | 0.00 | 0.00 | 58 | 1024.4 |
| 20260903120526 | 63 | 238 | 3.0 | 3.0 | 0.00 | 0.00 | 0.00 | 57 | 1024.1 |
| 20260903120021 | 63 | 240 | 2.0 | 3.0 | 0.00 | 0.00 | 0.00 | 58 | 1024.3 |
| 20260903115519 | 63 | 237 | 4.0 | 7.0 | 0.00 | 0.00 | 0.00 | 58 | 1024.1 |
| 20260903115014 | 63 | 245 | 1.0 | 2.0 | 0.00 | 0.00 | 0.00 | 58 | 1024.5 |
| 20260903114509 | 62 | 245 | 4.0 | 7.0 | 0.00 | 0.00 | 0.00 | 59 | 1024.5 |
| 20260903114005 | 62 | 259 | 2.0 | 3.0 | 0.00 | 0.00 | 0.00 | 59 | 1024.4 |
| 20260903113500 | 62 | 236 | 0.0 | 0.0 | 0.00 | 0.00 | 0.00 | 59 | 1024.4 |
| 20260903112956 | 62 | 238 | 2.0 | 3.0 | 0.00 | 0.00 | 0.00 | 58 | 1024.6 |
| 20260903112452 | 63 | 289 | 3.0 | 3.0 | 0.00 | 0.00 | 0.00 | 58 | 1024.4 |
| 20260903111951 | 63 | 233 | 2.0 | 3.0 | 0.00 | 0.00 | 0.00 | 57 | 1024.4 |
| 20260903111445 | 63 | 261 | 2.0 | 3.0 | 0.00 | 0.00 | 0.00 | 57 | 1024.8 |
| 20260903110941 | 63 | 241 | 3.0 | 5.0 | 0.00 | 0.00 | 0.00 | 56 | 1024.5 |
| 20260903110437 | 63 | 231 | 3.0 | 3.0 | 0.00 | 0.00 | 0.00 | 56 | 1024.8 |
| 20260903105931 | 63 | 249 | 0.0 | 2.0 | 0.00 | 0.00 | 0.00 | 56 | 1024.3 |
| 20260903105427 | 63 | 229 | 3.0 | 3.0 | 0.00 | 0.00 | 0.00 | 55 | 1024.5 |
| 20260903104926 | 63 | 241 | 0.0 | 2.0 | 0.00 | 0.00 | 0.00 | 53 | 1024.3 |
| 20260903104420 | 63 | 234 | 2.0 | 2.0 | 0.00 | 0.00 | 0.00 | 53 | 1024.5 |
| 20260903103917 | 63 | 238 | 2.0 | 3.0 | 0.00 | 0.00 | 0.00 | 51 | 1024.3 |
| 20260903103413 | 63 | 240 | 3.0 | 3.0 | 0.00 | 0.00 | 0.00 | 50 | 1024.4 |
| 20260903102908 | 63 | 244 | 3.0 | 5.0 | 0.00 | 0.00 | 0.00 | 49 | 1024.3 |
| 20260903102403 | 63 | 239 | 2.0 | 2.0 | 0.00 | 0.00 | 0.00 | 47 | 1024.5 |
| 20260903101902 | 63 | 250 | 1.0 | 2.0 | 0.00 | 0.00 | 0.00 | 46 | 1024.4 |
| 20260903101357 | 63 | 239 | 0.0 | 0.0 | 0.00 | 0.00 | 0.00 | 45 | 1024.4 |
| 20260903100853 | 64 | 247 | 1.0 | 2.0 | 0.00 | 0.00 | 0.00 | 44 | 1024.4 |
| 20260903100348 | 64 | 250 | 1.0 | 2.0 | 0.00 | 0.00 | 0.00 | 43 | 1024.4 |
| 20260903095844 | 65 | 260 | 2.0 | 3.0 | 0.00 | 0.00 | 0.00 | 42 | 1024.4 |
| 20260903095338 | 64 | 246 | 3.0 | 3.0 | 0.00 | 0.00 | 0.00 | 42 | 1024.5 |
| 20260903094834 | 64 | 249 | 2.0 | 3.0 | 0.00 | 0.00 | 0.00 | 42 | 1024.4 |
| 20260903094328 | 65 | 244 | 1.0 | 2.0 | 0.00 | 0.00 | 0.00 | 41 | 1024.4 |
| 20260903093824 | 65 | 249 | 2.0 | 3.0 | 0.00 | 0.00 | 0.00 | 40 | 1024.3 |
| 20260903093319 | 65 | 244 | 0.0 | 2.0 | 0.00 | 0.00 | 0.00 | 40 | 1024.4 |
| 20260903092814 | 65 | 246 | 0.0 | 2.0 | 0.00 | 0.00 | 0.00 | 40 | 1024.1 |
| 20260903092309 | 65 | 243 | 2.0 | 2.0 | 0.00 | 0.00 | 0.00 | 39 | 1024.3 |
| 20260903091808 | 65 | 244 | 1.0 | 2.0 | 0.00 | 0.00 | 0.00 | 39 | 1024.3 |
| 20260903091301 | 65 | 246 | 1.0 | 2.0 | 0.00 | 0.00 | 0.00 | 39 | 1024.3 |